Flag for Romania Weather past 2 weeks in Timișoara, Romania

Now
66 °F

Passing clouds.


Feels Like: 66 °F
Forecast: 63 / 74 °F
Wind: 10 mph from East

Location: Timisoara Airport

Current Time: Sep 20, 2014 at 11:46:47 AM

Latest Report: Sep 20, 2014 at 11:00 AM


Visibility: N/A

Pressure: 30.04 "Hg

Humidity: 83%

Dew point: 61 °F

Location of TimișoaraLocation

Historic Weather in Timișoara — Graph

°F

Timișoara temperature yesterday

Maximum temperature yesterday: 77 °F (at 3:30 PM)
Minimum temperature yesterday: 52 °F (at 4:30 AM)
Average temperature yesterday: 63 °F

Past Weeks' High & Low Weather Summary

 TemperatureHumidityPressure
High84 °F (Sep 11, 4:00 PM)100% (Sep 5, 6:30 PM)30.15 "Hg (Sep 5, 6:30 PM)
Low52 °F (Sep 18, 5:30 AM)36% (Sep 18, 4:30 PM)29.80 "Hg (Sep 11, 5:00 PM)
Average66 °F85%29.99 "Hg
* Reported Sep 5 10:00 AM — Sep 20 10:30 AM, Timișoara, Weather by CustomWeather, © 2014

Note: Actual official high and low records may vary slightly from our data, if they occured in-between our weather recording intervals... More about our weather records

Advertising

Timișoara weather history for previous 24 hours

 ConditionsComfort  
Time TempWeatherWind HumidityBarometerVisibility
10:30 AM
Sep 20
64 °FPassing clouds.9 mph88%30.04 "HgN/A
10:00 AM63 °FPassing clouds.8 mph94%30.07 "HgN/A
9:30 AM63 °FPassing clouds.9 mph88%30.07 "HgN/A
9:00 AM61 °FPassing clouds.7 mph94%30.07 "HgN/A
8:30 AM61 °FPassing clouds.8 mph94%30.07 "HgN/A
8:00 AM61 °FPassing clouds.6 mph94%30.07 "HgN/A
7:30 AM61 °FPassing clouds.7 mph94%30.07 "HgN/A
7:00 AM59 °FPassing clouds.5 mph100%30.07 "HgN/A
6:30 AM59 °FPassing clouds.6 mph100%30.07 "HgN/A
6:00 AM59 °FPassing clouds.6 mph100%30.07 "HgN/A
5:30 AM59 °FPassing clouds.7 mph100%30.07 "HgN/A
5:00 AM59 °FPassing clouds.7 mph100%30.07 "HgN/A
4:00 AM61 °FClear.6 mph94%30.07 "Hg10 mi
3:00 AM61 °FSprinkles. Passing clouds.6 mph94%30.09 "Hg5 mi
2:30 AM59 °FPassing clouds.5 mph100%30.09 "HgN/A
2:00 AM59 °FClear.6 mph94%30.09 "Hg10 mi
1:30 AM59 °FClear.5 mph94%30.09 "Hg10 mi
1:00 AM59 °FPassing clouds.6 mph100%30.09 "HgN/A
12:30 AM59 °FClear.5 mph100%30.09 "Hg10 mi
11:30 PM
Sep 19
59 °FClear.6 mph94%30.09 "Hg10 mi
11:00 PM59 °FPassing clouds.5 mph94%30.09 "HgN/A
10:30 PM59 °FPassing clouds.7 mph100%30.09 "HgN/A
10:00 PM59 °FClear.3 mph100%30.09 "Hg10 mi
9:30 PM63 °FClear.5 mph94%30.09 "Hg10 mi
9:00 PM66 °FClear.5 mph73%30.09 "Hg10 mi
8:30 PM64 °FSunny.6 mph78%30.09 "Hg10 mi
8:00 PM66 °FSunny.5 mph68%30.09 "Hg10 mi
7:30 PM70 °FPassing clouds.6 mph57%30.09 "HgN/A
7:00 PM72 °FPassing clouds.7 mph53%30.09 "HgN/A
6:30 PM73 °FPassing clouds.8 mph53%30.09 "HgN/A
6:00 PM75 °FSunny.9 mph47%30.09 "Hg10 mi
5:30 PM75 °FPassing clouds.10 mph44%30.09 "HgN/A
5:00 PM77 °FPassing clouds.12 mph44%30.09 "HgN/A
4:30 PM77 °FSunny.14 mph42%30.09 "Hg10 mi
4:00 PM77 °FPassing clouds.13 mph42%30.12 "HgN/A
3:30 PM77 °FPassing clouds.14 mph42%30.12 "HgN/A
3:00 PM75 °FPassing clouds.12 mph44%30.12 "HgN/A
2:30 PM73 °FPassing clouds.13 mph47%30.12 "HgN/A
2:00 PM73 °FPassing clouds.9 mph47%30.12 "HgN/A
1:30 PM73 °FPassing clouds.10 mph47%30.15 "HgN/A
1:00 PM73 °FPassing clouds.9 mph44%30.15 "HgN/A
12:30 PM72 °FPassing clouds.9 mph53%30.15 "HgN/A
12:00 PM72 °FPassing clouds.10 mph53%30.15 "HgN/A
11:30 AM68 °FPassing clouds.10 mph60%30.15 "HgN/A
11:00 AM66 °FPassing clouds.14 mph64%30.15 "HgN/A
Weather by CustomWeather, © 2014

See weather overviewHow to use our weather pages